This demonstration page uses our WeatherBlox Daily Observations layout. Learn more.

Left ArrowRight Arrow

Hourly Observations for August 13, 2019

Temp ( °F °C ) Dew Point ( °F °C ) Humidity (%) Winds ( mph kmh ) Pressure ( in mb ) Visibility ( mi km ) Precip ( " mm )
12:56 am 00:56 Clear 75 24 72 22 89 89 W 2 4 29.87 1012 10 16 0.00 0.00
1:56 am 01:56 Clear 75 24 72 22 89 89 NW 3 6 29.87 1012 10 16 0.00 0.00
2:56 am 02:56 Mostly Clear 73 23 72 22 94 94 VRB 7 11 29.87 1012 10 16 0.00 0.00
3:56 am 03:56 Mostly Clear 73 23 72 22 94 94 VRB 7 11 29.89 1012 10 16 0.00 0.00
4:56 am 04:56 Mostly Clear 73 23 72 22 94 94 VRB 7 11 29.92 1013 10 16 0.00 0.00
5:56 am 05:56 Clear 73 23 70 21 89 89 NW 5 7 29.95 1014 10 16 0.00 0.00
6:56 am 06:56 Sunny 73 23 70 21 89 89 WNW 3 6 29.96 1014 10 16 0.00 0.00
7:56 am 07:56 Sunny 75 24 70 21 83 83 WNW 8 13 29.97 1015 10 16 0.00 0.00
8:56 am 08:56 Mostly Sunny 81 27 68 20 66 66 VRB 7 11 29.98 1015 10 16 0.00 0.00
9:56 am 09:56 Mostly Sunny 82 28 70 21 66 66 VRB 7 11 29.97 1015 10 16 0.00 0.00
10:56 am 10:56 Mostly Sunny 84 29 63 17 48 48 NNE 8 13 30.00 1016 10 16 0.00 0.00
11:56 am 11:56 Mostly Sunny 86 30 61 16 43 43 NNE 6 9 30.00 1016 10 16 0.00 0.00
12:56 pm 12:56 Sunny 88 31 61 16 40 40 N 5 7 30.01 1016 10 16 0.00 0.00
1:56 pm 13:56 Mostly Sunny 90 32 59 15 36 36 NNW 7 11 30.00 1016 10 16 0.00 0.00
2:56 pm 14:56 Mostly Sunny 91 33 55 13 30 30 WNW 9 15 29.97 1015 10 16 0.00 0.00
3:56 pm 15:56 Mostly Sunny 91 33 57 14 32 32 WNW 7 11 29.98 1015 10 16 0.00 0.00
4:56 pm 16:56 Partly Cloudy 90 32 59 15 36 36 WNW 8 13 29.96 1015 10 16 0.00 0.00
5:56 pm 17:56 Mostly Cloudy 88 31 63 17 43 43 WNW 6 9 29.97 1015 10 16 0.00 0.00
6:56 pm 18:56 Mostly Cloudy 86 30 63 17 46 46 WNW 6 9 29.96 1015 10 16 0.00 0.00
7:56 pm 19:56 Mostly Cloudy 84 29 63 17 48 48 WNW 7 11 29.97 1015 10 16 0.00 0.00
8:56 pm 20:56 Cloudy 81 27 61 16 51 51 NW 6 9 29.99 1016 10 16 0.00 0.00
9:56 pm 21:56 Mostly Cloudy 79 26 63 17 58 58 NW 6 9 30.01 1016 10 16 0.00 0.00
10:56 pm 22:56 Mostly Cloudy 77 25 63 17 61 61 NW 6 9 30.02 1017 10 16 0.00 0.00
11:56 pm 23:56 Mostly Cloudy 77 25 59 15 54 54 NNW 12 19 30.04 1017 10 16 0.00 0.00

Powered by AerisWeather